Вернуться в каталог

COSMOS 1275 DEB

АктивенPO
NORAD 12659·DEBRIS·🇷🇺 Russia

Запущен Jun 4, 1981 с Plesetsk Cosmodrome

Loading…

Ближайшие Пролёты (ближайшие 24 часа)

TLE

СвежийSource: Space-Track

Эпоха: Sep 14, 2026, 11:46 UTC

1 12659U 81053P   26257.49081012  .00000763  00000-0  59540-3 0  9999
2 12659  82.7433 152.1099 0063619 318.7407 216.9214 13.90185760266991

Отслеживайте COSMOS 1275 DEB в реальном времени с AllMySat

Download on the App Store